Retour au catalogue

CZ-3C DEB

LostHEO
NORAD 48549·DEBRIS·🇨🇳 China

Lancé Feb 24, 2012 depuis Xichang Satellite Launch Center

Loading…

Prochains Passages (prochaines 24 heures)

TLE

PériméSource: Space-Track

Époque: Feb 23, 2024, 23:15 UTC

1 48549U 12008AU  24054.96883400  .00000985  00000-0  11647-2 0  9997
2 48549  21.8390 321.6105 6966416 273.0508  16.2113  2.62604945 88598

Suivez CZ-3C DEB en temps réel avec AllMySat

Download on the App Store